CAPE
0 0 0 0 0 0 0 0 0 0 0 0 0 0 0 0 0 0 0 0 0 10 46 30 15 101 44 438 1635 1973 2477 3134 3290 3105 3258 2824 2611 2659 2552 2861 2801 2759 2720 2599
0 0 0 0 0 0 0 0 0 0 0 0 0 0 0 0 0 0 0 5 30 28 48 136 190 17 150 1371 1511 2326 2818 2906 2797 2767 3082 2568 2578 2438 2677 2322 2105 1760 1586 1389
0 0 0 0 0 0 0 0 0 0 0 0 0 0 0 0 0 0 0 23 35 50 77 51 68 153 111 1055 1161 1858 2438 3003 2920 2761 1895 775 745 655 165 181 152 230 193 140
0 0 0 0 0 0 0 0 0 0 0 4 1 28 2 0 1 2 20 25 19 59 92 185 233 103 343 739 1340 1779 2198 2306 2351 2039 1313 876 174 157 37 60 2 40 118 35
0 0 0 0 0 0 0 0 0 0 3 21 20 23 69 0 0 0 10 0 11 119 151 96 152 69 400 1093 1294 834 653 434 215 433 462 234 109 81 37 50 176 199 154 40
0 0 0 0 0 0 0 0 0 0 13 42 23 52 65 46 3 0 4 22 34 256 318 356 339 557 866 945 710 446 200 125 134 154 247 293 257 104 32 74 29 0 0 0
0 0 0 0 0 0 0 1 19 13 34 34 46 22 49 10 15 20 62 119 144 283 528 617 684 694 504 385 296 181 82 31 4 2 0 0 3 0 0 4 0 0 0 0
0 0 0 0 0 0 0 7 54 69 83 84 16 15 90 52 76 81 132 220 365 572 688 692 630 500 308 268 154 24 8 0 0 0 0 0 0 0 0 0 0 0 0 0
2 0 0 0 0 0 20 16 24 96 67 68 81 32 31 59 122 146 217 285 375 417 482 462 344 268 146 47 0 0 0 0 0 0 0 0 0 0 0 0 0 0 0 0
10 23 0 0 0 8 18 52 74 90 104 98 74 84 104 75 84 173 225 284 225 138 48 44 57 33 2 0 0 0 0 0 0 0 0 0 0 0 0 0 0 0 0 0
35 86 41 51 20 40 40 89 101 167 157 201 162 79 137 112 143 230 270 251 118 56 23 4 0 0 0 0 0 0 0 0 0 0 0 0 0 0 0 0 0 0 0 1
3 52 83 42 52 51 96 118 155 191 170 158 171 146 89 73 182 227 200 135 64 26 2 0 0 0 0 0 0 0 0 0 0 0 0 0 0 0 0 0 0 0 3 7
80 115 145 100 57 60 105 133 163 221 230 102 168 105 19 56 99 166 96 13 1 0 0 0 0 0 0 0 0 0 0 0 0 0 0 0 0 0 0 0 2 4 4 6
152 180 105 135 94 120 108 93 112 164 141 125 135 126 86 59 110 54 10 3 0 0 0 0 0 0 0 0 0 0 0 0 0 0 0 0 0 2 5 9 13 12 9 10
288 230 156 78 14 9 21 115 152 118 130 114 165 72 89 83 108 66 46 17 3 0 0 0 0 0 0 0 0 0 0 0 0 0 0 0 1 4 6 9 10 10 12 11
83 252 124 4 50 39 33 99 84 51 31 90 98 98 41 67 74 67 35 20 5 0 0 0 0 0 0 0 0 0 0 0 0 0 0 1 1 4 7 12 12 9 9 10
44 281 316 87 43 51 41 12 18 16 18 37 74 43 66 55 36 40 22 4 0 0 0 0 0 0 0 0 0 0 0 0 0 0 0 0 2 3 5 5 7 9 11 11
124 108 74 54 32 19 3 0 0 0 2 4 4 4 24 60 47 9 0 0 0 0 0 0 0 0 0 0 0 1 1 2 2 3 3 4 5 7 8 4 11 12 13 18
93 91 45 15 7 0 0 0 0 2 28 4 13 20 14 31 0 0 0 0 0 0 0 0 0 0 1 2 4 4 3 4 5 4 6 6 6 5 11 8 11 14 19 8
0 6 0 2 0 0 46 10 2 4 73 13 22 15 15 4 77 15 0 0 0 0 0 0 0 1 3 4 6 5 5 7 6 5 6 4 4 8 11 14 13 19 7 18
23 18 7 5 7 3 14 0 11 26 48 35 46 41 41 22 46 0 0 0 0 0 0 0 1 3 7 8 8 9 7 9 9 10 7 6 5 9 8 10 18 11 14 7
11 23 23 15 15 16 0 5 39 129 67 70 59 23 0 0 0 0 0 0 0 0 0 2 6 9 12 11 11 10 9 10 8 9 8 6 7 9 9 11 7 12 15 15
30 20 22 16 49 50 67 148 126 96 79 40 12 2 1 1 0 0 0 0 0 0 0 4 8 8 11 9 9 11 8 8 10 11 11 7 11 10 8 9 7 8 12 17
50 24 52 31 31 70 130 105 75 56 37 38 24 2 0 0 0 0 0 0 0 0 0 1 14 13 4 13 9 10 9 7 10 13 10 9 9 7 9 10 15 15 17 15
37 38 50 48 72 69 96 102 36 16 6 0 0 0 0 0 0 0 0 0 0 0 0 0 9 11 7 12 11 7 8 9 10 9 7 8 8 10 12 9 16 15 12 8
62 8 96 49 89 86 107 59 12 1 0 0 0 0 0 0 0 0 0 0 0 0 0 0 0 4 0 9 9 7 9 7 10 10 9 12 10 10 15 14 11 0 0 0
CIN
0 0 0 0 0 0 0 0 0 0 0 0 0 0 0 0 0 0 0 0 0 -19 -35 -26 -42 -22 -61 -31 -65 -97 -76 -66 -35 -83 -9 -22 -11 -1 0 0 0 0 0 0
0 0 0 0 0 0 0 0 0 0 0 0 0 0 0 0 0 0 0 0 0 -2 -30 -45 -87 -124 -54 -79 -62 -57 -41 -84 -73 -69 -38 -29 -22 -13 -1 -7 -10 -15 -15 -12
0 0 0 0 0 0 0 0 0 0 0 0 0 0 0 0 0 0 0 0 -5 -21 -18 -55 -16 -45 -17 -64 -56 -104 -84 -30 -35 -30 -104 -217 -175 -148 -195 -178 -166 -133 -142 -139
0 0 0 0 0 0 0 0 0 0 0 0 -1 0 -3 0 -3 -8 -14 -11 -11 -16 -36 -37 -17 -34 -93 -94 -83 -85 -59 -44 -71 -82 -109 -141 -114 -102 -157 -202 -36 -198 -165 -195
0 0 0 0 0 0 0 0 0 0 0 0 0 0 0 0 0 0 -25 0 -15 -16 -16 -81 -120 -160 -153 -132 -130 -166 -202 -279 -368 -258 -178 -140 -119 -140 -165 -176 -163 -144 -142 -175
0 0 0 0 0 0 0 0 0 0 0 0 0 0 -2 0 -1 0 -15 -53 -90 -77 -96 -108 -233 -231 -178 -176 -188 -256 -335 -401 -374 -338 -262 -213 -210 -231 -206 -161 -154 0 0 0
0 0 0 0 0 0 0 0 0 0 0 0 0 0 -1 -17 -21 -15 -29 -45 -84 -98 -94 -111 -155 -199 -287 -260 -248 -265 -314 -434 -192 -180 0 0 -166 0 0 -125 0 0 0 0
0 0 0 0 0 0 0 0 0 0 0 0 -8 0 0 -11 -53 -62 -50 -65 -90 -90 -104 -97 -141 -187 -240 -279 -310 -384 -406 -27 0 0 0 0 0 0 0 0 0 0 0 0
0 0 0 0 0 0 0 0 0 0 0 0 -1 0 -5 -18 -32 -38 -38 -67 -75 -103 -124 -151 -203 -229 -286 -363 -100 0 0 0 0 0 0 0 0 0 0 0 0 0 0 0
0 0 0 0 0 -1 -1 0 0 0 0 0 0 0 0 -3 -6 -18 -33 -37 -71 -126 -223 -265 -281 -336 -194 0 0 0 0 0 0 0 0 0 0 0 0 0 0 0 0 0
0 -1 0 0 0 0 -2 0 0 -1 0 0 0 -2 -3 -3 0 -3 -11 -31 -85 -108 -154 -154 0 0 0 0 0 0 0 0 0 0 0 0 0 0 0 0 0 0 0 0
0 0 -1 0 -24 -27 -3 0 0 0 0 0 0 0 -30 -23 -2 -2 -4 -32 -50 -88 -116 0 0 0 0 0 0 0 0 0 0 0 0 0 0 0 0 0 0 0 0 0
-1 0 0 -2 -1 -13 -2 -1 -1 0 0 -3 0 -1 -27 -8 -7 -7 -12 -59 -121 0 0 0 0 0 0 0 0 0 0 0 0 0 0 0 0 0 0 0 0 0 0 0
-19 -1 0 0 -1 0 0 0 0 0 0 0 0 -1 -1 -9 -9 -21 -59 -81 0 0 0 0 0 0 0 0 0 0 0 0 0 0 0 0 0 0 0 0 0 0 0 0
0 0 -6 -3 -21 -20 -48 -1 -1 0 0 0 0 -1 0 0 0 -3 -40 -60 -89 0 0 0 0 0 0 0 0 0 0 0 0 0 0 0 0 0 0 0 0 0 0 0
-16 0 -9 -19 0 0 -1 -1 0 0 0 0 0 0 0 -1 0 0 -32 -50 -75 0 0 0 0 0 0 0 0 0 0 0 0 0 0 0 0 0 0 0 0 0 0 0
0 0 0 0 -6 -3 0 0 -14 -3 -2 -3 -1 -7 0 -1 0 -3 -26 -48 -19 0 0 0 0 0 0 0 0 0 0 0 0 0 0 0 0 0 0 0 0 0 0 0
-3 0 0 0 0 0 -1 0 0 0 0 0 0 0 0 0 0 0 0 0 0 0 0 0 0 0 0 0 0 0 0 0 0 0 0 0 0 0 0 0 0 0 0 0
-3 -1 -15 0 0 0 0 0 0 0 0 0 0 0 0 0 0 0 0 0 0 0 0 0 0 0 0 0 0 0 0 0 0 0 0 0 0 0 0 0 0 0 0 0
0 -24 0 0 0 0 0 0 0 0 0 -5 0 -5 -4 -2 0 -1 0 0 0 0 0 0 0 0 0 0 0 0 0 0 0 0 0 0 0 0 0 0 0 0 0 0
0 0 0 0 0 0 0 0 -3 0 0 0 0 0 -1 -5 0 0 0 0 0 0 0 0 0 0 0 0 0 0 0 0 0 0 0 0 0 0 0 0 0 0 0 0
0 0 0 0 0 0 0 0 0 0 0 0 0 -2 0 0 0 0 0 0 0 0 0 0 0 0 0 0 0 0 0 0 0 0 0 0 0 0 0 0 0 0 0 0
0 0 0 0 0 0 0 0 0 0 0 0 -1 0 0 0 0 0 0 0 0 0 0 0 0 0 0 0 0 0 0 0 0 0 0 0 0 0 0 0 0 -1 0 0
0 0 0 0 0 0 0 0 0 0 0 0 -1 -9 0 0 0 0 0 0 0 0 0 0 0 0 0 0 0 0 0 0 0 0 0 0 0 0 0 0 0 0 0 0
0 0 0 0 0 0 0 0 0 0 -1 0 0 0 0 0 0 0 0 0 0 0 0 0 0 0 0 0 0 0 0 0 0 0 0 0 0 0 0 0 0 0 0 0
0 -8 0 0 0 0 0 0 -1 -11 0 0 0 0 0 0 0 0 0 0 0 0 0 0 0 0 0 0 0 0 0 0 0 0 0 0 0 0 0 0 0 0 0 0
Wind_Speed
17 14 17 19 17 10 4 6 10 10 6 10 14 17 19 13 13 17 19 18 19 21 18 21 14 10 7 6 5 1 6 10 8 10 9 6 8 7 7 7 7 7 7 7
12 19 18 11 13 12 11 12 14 12 7 5 11 14 13 10 14 14 18 18 17 17 15 22 12 8 11 10 9 7 10 10 9 6 6 5 4 2 3 3 4 5 6 6
19 11 15 14 12 13 14 15 14 13 8 13 12 16 13 11 12 17 19 18 15 18 16 16 9 13 13 8 6 7 8 9 9 10 8 7 6 5 4 4 3 4 4 5
20 14 10 16 15 14 15 14 15 16 13 10 7 11 11 9 13 17 19 17 17 19 16 14 11 11 8 7 8 9 10 10 11 13 10 9 7 7 4 6 4 4 5 5
17 17 19 15 15 15 13 12 14 17 16 14 14 10 5 5 8 17 12 15 15 15 18 15 12 9 8 12 13 12 11 10 8 6 5 7 5 5 3 2 1 3 4 5
21 12 16 20 18 16 10 8 10 13 13 13 16 8 8 5 1 6 9 10 6 3 3 8 12 13 13 14 13 12 12 9 8 8 7 6 5 2 1 1 3 4 5 5
19 20 14 12 14 14 13 11 10 12 14 12 4 9 10 7 5 3 10 9 7 6 9 12 15 17 16 14 13 11 10 10 10 8 9 6 5 4 2 5 5 6 7 7
17 19 22 16 18 17 17 15 12 14 13 13 11 8 6 7 0 1 4 10 12 11 13 15 15 15 16 13 11 11 10 9 8 7 7 7 7 5 5 4 6 7 8 9
18 21 13 21 17 19 12 13 16 17 4 8 9 8 4 6 5 8 11 13 14 14 14 14 12 11 12 12 10 9 8 8 7 7 6 5 5 6 7 8 8 8 10 10
9 13 12 19 16 11 16 12 10 10 14 15 15 10 6 12 10 11 13 15 15 14 13 12 11 11 10 10 9 8 7 6 5 5 5 5 7 7 8 9 11 12 12 14
14 8 11 13 17 18 9 13 10 7 10 9 12 6 6 3 7 12 13 15 15 14 13 11 11 10 9 8 8 6 3 1 3 4 6 7 8 9 10 10 12 12 12 13
23 10 12 18 7 5 8 18 17 10 13 10 11 4 7 2 6 10 13 13 13 11 11 11 11 10 8 6 5 3 4 6 6 7 8 9 10 11 12 11 13 12 13 13
15 11 14 11 9 5 11 10 9 6 4 11 10 9 4 3 7 10 12 11 11 11 10 9 8 7 6 3 2 4 5 6 7 8 9 10 11 12 13 13 13 13 14 14
19 8 13 11 2 1 14 9 11 13 10 12 14 9 8 8 10 9 11 11 12 9 10 6 5 5 3 4 6 7 8 8 9 10 11 12 12 12 12 12 13 12 13 13
6 10 6 5 5 4 7 12 15 15 15 15 14 7 6 9 9 12 12 11 11 9 9 6 2 3 4 7 7 8 9 10 10 11 12 12 12 12 12 12 13 13 13 12
3 8 10 13 14 13 15 16 10 11 9 8 9 8 3 0 4 8 9 9 9 9 4 3 2 5 7 8 9 9 10 10 11 12 13 12 12 11 11 13 13 13 12 12
10 11 15 11 9 9 14 16 15 14 11 11 13 10 8 6 9 8 8 8 7 6 3 2 4 6 7 8 9 10 11 11 12 13 13 13 12 12 12 14 14 12 12 13
11 10 6 6 8 12 6 3 3 7 8 11 12 10 7 8 6 6 7 7 6 2 3 5 6 7 8 9 10 11 11 12 13 13 13 13 12 12 13 14 14 13 13 14
3 6 5 5 11 4 9 5 4 8 9 1 4 2 3 11 15 10 8 6 5 4 5 7 8 9 9 10 11 12 12 13 13 13 13 13 13 14 15 14 14 13 13 14
6 4 4 5 4 4 9 4 1 3 6 4 5 7 10 14 10 11 8 6 5 6 8 9 9 9 10 11 12 13 13 13 13 13 13 13 13 15 14 15 15 13 12 13
8 5 7 5 3 1 6 1 3 6 6 8 10 10 7 7 8 9 6 6 6 7 8 9 9 10 11 11 12 13 13 13 13 13 13 13 13 15 15 15 13 11 14 12
6 6 4 4 4 3 3 5 3 7 10 10 11 11 14 13 9 8 6 6 6 7 8 10 10 10 11 11 11 12 13 13 13 13 13 14 14 12 12 14 13 14 12 13
5 3 4 3 3 7 4 7 7 8 12 12 12 12 11 10 8 7 6 6 6 6 7 8 9 9 10 11 10 12 12 12 13 14 14 13 15 12 12 12 13 12 10 10
5 5 4 7 7 7 8 9 10 12 14 13 11 9 9 9 8 6 6 6 6 7 7 7 9 10 11 12 11 11 12 12 13 14 14 12 13 12 12 9 8 8 8 8
4 6 6 6 7 7 7 9 14 15 13 13 11 11 10 9 8 6 7 7 7 7 7 7 9 9 10 11 12 13 11 13 13 13 12 11 10 11 11 10 9 10 10 9
7 4 5 1 7 2 12 13 16 14 14 13 13 12 11 10 9 7 7 6 7 7 8 9 10 11 11 9 10 12 13 13 13 12 10 8 9 9 8 9 11 9 13 17
Wind_Direction
185 195 204 201 214 258 241 237 256 259 270 255 266 258 266 247 231 230 226 204 219 226 207 238 252 216 160 136 83 300 191 173 179 165 205 193 209 191 189 213 214 217 211 213
175 218 203 216 203 228 227 241 250 258 265 289 281 271 266 239 225 225 213 215 204 221 215 211 160 159 207 163 147 179 216 176 189 168 153 197 157 243 171 178 170 183 194 207
201 208 209 207 204 220 229 245 252 261 290 282 266 257 239 221 211 210 227 229 218 239 227 204 199 196 215 162 172 160 185 174 167 169 152 134 130 134 161 152 170 177 198 213
226 176 187 201 214 216 236 232 248 267 264 273 194 279 185 189 211 218 217 212 225 233 206 225 195 200 183 168 161 172 160 159 157 170 154 157 163 168 155 183 173 189 219 240
205 209 210 206 206 211 251 263 256 249 249 259 225 245 129 172 218 210 220 230 223 212 208 184 208 193 174 158 151 134 115 114 98 77 105 165 165 134 147 140 148 257 244 251
230 190 218 223 220 232 251 227 238 245 244 235 240 242 222 163 283 173 191 200 206 207 183 157 148 150 148 135 130 123 115 100 86 87 81 85 106 108 236 196 268 262 275 268
213 220 215 226 204 200 209 230 217 212 219 238 194 214 278 112 121 69 150 141 157 150 146 144 153 139 137 131 125 127 120 107 102 97 93 76 64 58 12 323 308 310 283 287
208 204 211 197 220 207 206 222 241 214 220 218 153 220 231 112 35 98 113 129 136 148 145 148 137 138 127 122 124 120 116 99 86 75 57 44 23 353 316 301 316 300 298 296
203 223 181 208 205 220 200 219 249 275 318 275 180 192 188 159 156 154 145 145 143 143 140 133 128 121 119 112 104 99 92 82 61 50 27 4 345 325 316 302 292 289 291 282
193 212 193 189 215 212 253 226 204 229 246 227 240 220 270 177 178 161 159 154 147 131 131 131 124 113 101 96 89 79 69 55 31 4 345 331 317 301 303 292 282 282 278 276
212 248 167 168 201 196 182 210 235 258 224 245 254 229 56 41 166 172 163 154 150 154 141 133 124 121 121 120 121 120 109 44 337 319 316 303 298 292 286 282 277 278 285 280
209 223 195 198 90 323 252 217 199 216 210 238 254 257 100 89 160 172 156 155 158 146 138 134 133 134 129 122 106 65 2 327 328 316 308 300 295 291 286 285 285 290 288 283
169 205 205 200 188 183 226 206 240 268 286 218 229 250 71 121 175 184 161 145 142 131 125 125 134 123 112 108 23 351 322 317 308 307 299 296 296 294 293 294 296 295 294 289
188 167 212 214 74 30 213 224 219 227 232 237 247 239 151 148 168 161 153 151 134 137 127 121 129 108 65 355 352 337 326 323 320 313 306 300 298 295 288 284 282 282 284 282
205 185 198 186 257 249 274 275 234 235 249 254 253 221 258 170 186 167 157 157 147 143 148 137 166 50 355 348 337 324 323 314 311 301 295 292 293 290 290 296 293 291 286 281
324 164 167 192 210 211 218 236 225 220 239 240 254 250 225 233 246 159 176 168 163 139 143 100 4 354 345 334 326 318 305 309 307 298 294 297 293 293 293 293 289 288 287 288
192 165 176 168 184 202 234 236 227 241 233 250 244 242 246 175 227 185 166 172 149 131 108 21 344 348 336 324 319 310 318 314 310 305 305 304 305 301 299 296 291 290 295 295
172 171 159 130 170 219 93 55 319 273 264 255 247 258 242 195 155 128 141 134 122 90 25 352 347 337 335 325 323 324 321 315 313 309 308 308 307 305 300 290 289 293 289 294
202 151 141 171 198 55 158 161 193 209 141 98 262 231 155 111 120 119 96 75 69 30 2 353 353 343 331 329 331 322 320 319 315 311 307 311 311 300 292 292 290 292 297 292
125 157 150 162 192 201 85 111 211 205 143 94 109 119 138 160 190 114 104 56 43 25 14 358 346 338 338 341 331 323 321 319 315 314 313 309 297 289 289 288 291 296 288 285
156 153 176 146 188 164 98 84 179 222 112 116 109 101 83 84 65 95 83 60 39 26 13 354 353 348 341 334 331 323 319 311 312 311 305 296 292 291 286 284 286 295 296 292
151 146 174 156 178 213 132 173 262 98 119 113 96 95 99 107 100 90 76 59 39 19 10 10 357 350 338 338 331 320 312 322 313 307 302 298 292 288 288 292 296 286 292 286
149 123 149 148 97 99 82 66 101 115 116 112 111 102 96 87 83 69 63 47 34 19 4 16 358 341 346 340 326 317 318 310 319 311 306 302 297 294 297 293 287 289 291 287
117 153 128 164 147 130 110 107 112 115 114 98 92 101 94 89 80 72 44 27 11 8 356 349 355 350 347 346 332 324 323 322 319 314 312 309 307 309 297 288 294 298 289 291
46 176 163 124 141 156 153 128 117 114 106 106 96 92 92 94 76 50 44 28 17 5 357 346 358 357 359 343 338 333 324 333 324 320 317 318 312 308 308 301 296 291 293 284
172 167 173 175 131 88 148 134 131 126 118 120 113 99 85 82 70 51 47 33 18 5 359 358 355 348 4 338 331 334 337 336 333 324 325 320 316 317 312 310 311 283 265 280